When you browse on this site, cookies collect data to enhance your experience and personalize the content and advertising you see.
Visit our Privacy Policy to learn more. By continuing to use the site, you agree to this use of cookies and data.
  • en Suisse
  • Liste des pays
  • À 7 jours
  • Température de l'eau
  • Carte météo
  • Widgets météo
  • user-avatar
    Se connecter

    Météo par heure à Valevka

    Ce jour, 25 Janvier, Samedi

    Heure Température Précipitation Vent Pression Humidité
    00:00 -2°C° 0.5 mm 6 m/s 740 mmHg 91%
    01:00 -2°C° 0.5 mm 6 m/s 740 mmHg 91%
    02:00 -1°C° 0.5 mm 6 m/s 739 mmHg 92%
    03:00 -1°C° 0.1 mm 6 m/s 739 mmHg 92%
    04:00 -1°C° 0.1 mm 6 m/s 739 mmHg 92%
    05:00 -1°C° 0.1 mm 6 m/s 739 mmHg 92%
    06:00 -1°C° 0 mm 6 m/s 739 mmHg 91%
    07:00 -1°C° 0 mm 7 m/s 739 mmHg 90%
    08:00 -1°C° 0 mm 7 m/s 739 mmHg 89%
    09:00 0°C° 0 mm 7 m/s 739 mmHg 88%
    10:00 0°C° 0 mm 7 m/s 740 mmHg 87%
    11:00 0°C° 0 mm 7 m/s 740 mmHg 86%
    12:00 0°C° 0 mm 7 m/s 740 mmHg 84%
    13:00 0°C° 0 mm 7 m/s 740 mmHg 82%
    14:00 +2°C° 0 mm 6 m/s 740 mmHg 80%
    15:00 +1°C° 0 mm 6 m/s 740 mmHg 81%
    16:00 +1°C° 0 mm 5 m/s 741 mmHg 82%
    17:00 +1°C° 0 mm 4 m/s 741 mmHg 84%
    18:00 0°C° 0 mm 4 m/s 741 mmHg 84%
    19:00 0°C° 0 mm 4 m/s 741 mmHg 84%
    20:00 0°C° 0 mm 4 m/s 742 mmHg 84%
    21:00 -1°C° 0 mm 4 m/s 742 mmHg 86%
    22:00 -1°C° 0 mm 4 m/s 743 mmHg 87%
    23:00 -1°C° 0 mm 4 m/s 743 mmHg 89%

    Demain, 26 Janvier, Dimanche

    Heure Température Précipitation Vent Pression Humidité
    00:00 -1°C° 0 mm 3 m/s 743 mmHg 90%
    01:00 -1°C° 0 mm 3 m/s 744 mmHg 91%
    02:00 -1°C° 0 mm 3 m/s 744 mmHg 93%
    03:00 -1°C° 0 mm 3 m/s 744 mmHg 93%
    04:00 -1°C° 0 mm 2 m/s 744 mmHg 94%
    05:00 -2°C° 0 mm 2 m/s 744 mmHg 95%
    06:00 -2°C° 0 mm 2 m/s 744 mmHg 95%
    07:00 -2°C° 0 mm 2 m/s 744 mmHg 95%
    08:00 -2°C° 0 mm 2 m/s 745 mmHg 95%
    09:00 -1°C° 0 mm 3 m/s 745 mmHg 91%
    10:00 0°C° 0 mm 3 m/s 745 mmHg 87%
    11:00 0°C° 0 mm 4 m/s 745 mmHg 83%
    12:00 +1°C° 0 mm 4 m/s 745 mmHg 80%
    13:00 +1°C° 0 mm 4 m/s 745 mmHg 78%
    14:00 +1°C° 0 mm 4 m/s 745 mmHg 75%
    15:00 +1°C° 0 mm 4 m/s 745 mmHg 79%
    16:00 0°C° 0 mm 4 m/s 745 mmHg 83%
    17:00 +1°C° 0 mm 3 m/s 744 mmHg 88%
    18:00 +1°C° 0 mm 3 m/s 744 mmHg 89%
    19:00 +1°C° 0 mm 3 m/s 744 mmHg 91%
    20:00 +1°C° 0 mm 3 m/s 744 mmHg 92%
    21:00 +1°C° 0 mm 3 m/s 744 mmHg 92%
    22:00 +1°C° 0 mm 3 m/s 744 mmHg 92%
    23:00 +1°C° 0 mm 3 m/s 744 mmHg 92%

    Après-demain, 27 Janvier, Lundi

    Heure Température Précipitation Vent Pression Humidité
    00:00 +1°C° 0 mm 3 m/s 744 mmHg 92%
    01:00 +1°C° 0 mm 3 m/s 744 mmHg 91%
    02:00 +1°C° 0 mm 3 m/s 743 mmHg 91%
    03:00 +1°C° 0 mm 3 m/s 743 mmHg 90%
    04:00 +1°C° 0 mm 3 m/s 743 mmHg 89%
    05:00 +2°C° 0 mm 2 m/s 743 mmHg 88%
    06:00 +1°C° 0 mm 2 m/s 742 mmHg 87%
    07:00 +1°C° 0 mm 2 m/s 742 mmHg 86%
    08:00 -1°C° 0 mm 2 m/s 742 mmHg 85%
    09:00 +1°C° 0 mm 2 m/s 742 mmHg 81%
    10:00 0°C° 0 mm 3 m/s 742 mmHg 78%
    11:00 0°C° 0 mm 3 m/s 742 mmHg 75%
    12:00 +1°C° 0 mm 3 m/s 741 mmHg 74%
    13:00 +1°C° 0 mm 3 m/s 741 mmHg 74%
    14:00 +1°C° 0 mm 3 m/s 741 mmHg 74%
    15:00 +1°C° 0 mm 3 m/s 740 mmHg 77%
    16:00 +2°C° 0 mm 2 m/s 740 mmHg 79%
    17:00 +1°C° 0 mm 2 m/s 740 mmHg 82%
    18:00 +1°C° 0 mm 2 m/s 740 mmHg 83%
    19:00 0°C° 0 mm 3 m/s 740 mmHg 83%
    20:00 0°C° 0 mm 3 m/s 739 mmHg 84%
    21:00 +1°C° 0 mm 2 m/s 739 mmHg 85%
    22:00 +1°C° 0 mm 2 m/s 739 mmHg 86%
    23:00 +1°C° 0 mm 2 m/s 739 mmHg 88%

    28 Janvier, Mardi

    Heure Température Précipitation Vent Pression Humidité
    00:00 0°C° 0.3 mm 3 m/s 739 mmHg 90%
    01:00 0°C° 0.3 mm 3 m/s 738 mmHg 92%
    02:00 0°C° 0.3 mm 3 m/s 738 mmHg 94%
    03:00 0°C° 0.2 mm 3 m/s 738 mmHg 94%
    04:00 +1°C° 0.2 mm 3 m/s 737 mmHg 94%
    05:00 +1°C° 0.2 mm 3 m/s 737 mmHg 94%
    06:00 0°C° 0 mm 3 m/s 737 mmHg 93%
    07:00 0°C° 0 mm 3 m/s 736 mmHg 92%
    08:00 0°C° 0 mm 3 m/s 736 mmHg 91%
    09:00 0°C° 0 mm 3 m/s 736 mmHg 88%
    10:00 0°C° 0 mm 4 m/s 736 mmHg 85%
    11:00 0°C° 0 mm 4 m/s 736 mmHg 83%
    12:00 0°C° 0 mm 4 m/s 735 mmHg 82%
    13:00 +1°C° 0 mm 4 m/s 734 mmHg 80%
    14:00 +1°C° 0 mm 4 m/s 734 mmHg 79%
    15:00 +1°C° 0 mm 4 m/s 734 mmHg 81%
    16:00 +1°C° 0 mm 4 m/s 733 mmHg 82%
    17:00 0°C° 0 mm 4 m/s 733 mmHg 83%
    18:00 +1°C° 0 mm 4 m/s 733 mmHg 84%
    19:00 +1°C° 0 mm 5 m/s 732 mmHg 84%
    20:00 +1°C° 0 mm 5 m/s 732 mmHg 85%
    21:00 +1°C° 0 mm 5 m/s 732 mmHg 85%
    22:00 0°C° 0 mm 5 m/s 731 mmHg 86%
    23:00 0°C° 0 mm 5 m/s 730 mmHg 87%

    29 Janvier, Mercredi

    Heure Température Précipitation Vent Pression Humidité
    00:00 0°C° 0.1 mm 5 m/s 730 mmHg 88%
    01:00 +1°C° 0.1 mm 6 m/s 729 mmHg 90%
    02:00 +1°C° 0.1 mm 6 m/s 729 mmHg 91%
    03:00 +1°C° 0.4 mm 6 m/s 728 mmHg 93%
    04:00 +1°C° 0.4 mm 5 m/s 728 mmHg 95%
    05:00 +1°C° 0.4 mm 5 m/s 727 mmHg 96%
    06:00 +1°C° 0.1 mm 5 m/s 727 mmHg 94%
    07:00 +1°C° 0.1 mm 5 m/s 727 mmHg 93%
    08:00 +1°C° 0.1 mm 5 m/s 727 mmHg 91%
    09:00 -1°C° 0.1 mm 6 m/s 727 mmHg 92%
    10:00 -1°C° 0.1 mm 6 m/s 727 mmHg 93%
    11:00 -2°C° 0.1 mm 7 m/s 728 mmHg 93%
    12:00 -2°C° 0.1 mm 6 m/s 728 mmHg 86%
    13:00 -1°C° 0.1 mm 6 m/s 728 mmHg 78%
    14:00 -1°C° 0.1 mm 6 m/s 728 mmHg 70%
    15:00 0°C° 0 mm 5 m/s 728 mmHg 72%
    16:00 -1°C° 0 mm 4 m/s 728 mmHg 74%
    17:00 0°C° 0 mm 3 m/s 729 mmHg 76%
    18:00 -1°C° 0 mm 3 m/s 728 mmHg 79%
    19:00 -1°C° 0 mm 3 m/s 728 mmHg 82%
    20:00 -1°C° 0 mm 3 m/s 728 mmHg 85%
    21:00 -1°C° 0.2 mm 3 m/s 728 mmHg 88%
    22:00 -1°C° 0.2 mm 3 m/s 727 mmHg 92%
    23:00 0°C° 0.2 mm 3 m/s 727 mmHg 95%

    30 Janvier, Jeudi

    Heure Température Précipitation Vent Pression Humidité
    00:00 -1°C° 0 mm 3 m/s 727 mmHg 94%
    01:00 -1°C° 0 mm 3 m/s 727 mmHg 93%
    02:00 -1°C° 0 mm 2 m/s 727 mmHg 92%
    03:00 -1°C° 0 mm 2 m/s 727 mmHg 93%
    04:00 -2°C° 0 mm 2 m/s 727 mmHg 95%
    05:00 -2°C° 0 mm 2 m/s 727 mmHg 96%
    06:00 -2°C° 0.1 mm 3 m/s 727 mmHg 94%
    07:00 -2°C° 0.1 mm 3 m/s 727 mmHg 92%
    08:00 -2°C° 0.1 mm 4 m/s 728 mmHg 91%
    09:00 -2°C° 0.1 mm 4 m/s 727 mmHg 90%
    10:00 -2°C° 0.1 mm 5 m/s 727 mmHg 90%
    11:00 -2°C° 0.1 mm 5 m/s 727 mmHg 90%
    12:00 -3°C° 0.3 mm 6 m/s 727 mmHg 92%
    13:00 -2°C° 0.3 mm 6 m/s 727 mmHg 94%
    14:00 -2°C° 0.3 mm 7 m/s 727 mmHg 95%
    15:00 -2°C° 0.2 mm 7 m/s 727 mmHg 93%
    16:00 -2°C° 0.2 mm 7 m/s 727 mmHg 92%
    17:00 -2°C° 0.2 mm 7 m/s 727 mmHg 90%
    18:00 -2°C° 0.2 mm 6 m/s 728 mmHg 91%
    19:00 -2°C° 0.2 mm 6 m/s 728 mmHg 93%
    20:00 -3°C° 0.2 mm 6 m/s 728 mmHg 94%
    21:00 -3°C° 0.4 mm 6 m/s 729 mmHg 95%
    22:00 -2°C° 0.4 mm 5 m/s 729 mmHg 95%
    23:00 -2°C° 0.4 mm 5 m/s 729 mmHg 96%
    Voir plus